Time,TemperatureF,DewpointF,PressureIn,WindDirection,WindDirectionDegrees,WindSpeedMPH,WindSpeedGustMPH,Humidity,HourlyPrecipIn,Conditions,Clouds,dailyrainin,SoftwareType,DateUTC
2013-03-26 00:00:00,29.2,23.2,30.00,North,1,7.0,20.0,78,0.00,,SKC,0.03,VWS V14.01,2013-03-26 04:00:00,
2013-03-26 00:05:00,29.2,23.2,30.00,NNW,343,9.0,12.0,78,0.00,,SKC,0.00,VWS V14.01,2013-03-26 04:05:00,
2013-03-26 00:10:00,29.2,22.9,30.00,North,352,14.0,19.0,77,0.00,,SKC,0.00,VWS V14.01,2013-03-26 04:10:00,
2013-03-26 00:15:00,29.2,23.5,30.00,NNE,20,10.0,19.0,79,0.00,,SKC,0.00,VWS V14.01,2013-03-26 04:15:00,
2013-03-26 00:20:00,29.0,23.3,30.01,North,1,4.0,19.0,79,0.00,,SKC,0.00,VWS V14.01,2013-03-26 04:20:00,
2013-03-26 00:25:00,29.0,23.6,30.01,NW,318,6.0,19.0,80,0.00,,SKC,0.00,VWS V14.01,2013-03-26 04:25:00,
2013-03-26 00:30:00,28.7,23.9,30.01,NNE,32,14.0,19.0,82,0.00,,SKC,0.00,VWS V14.01,2013-03-26 04:30:00,
2013-03-26 00:35:00,28.4,23.9,30.01,North,8,7.0,15.0,83,0.00,,SKC,0.00,VWS V14.01,2013-03-26 04:35:00,
2013-03-26 00:40:00,28.1,24.2,30.01,NNW,344,5.0,18.0,85,0.00,,SKC,0.00,VWS V14.01,2013-03-26 04:40:00,
2013-03-26 00:45:00,27.8,24.4,30.01,North,349,10.0,18.0,87,0.00,,SKC,0.00,VWS V14.01,2013-03-26 04:45:00,
2013-03-26 00:50:00,27.8,24.2,30.01,NE,38,9.0,19.0,86,0.00,,SKC,0.00,VWS V14.01,2013-03-26 04:50:00,
2013-03-26 00:55:00,27.8,24.2,30.01,NNW,338,12.0,19.0,86,0.00,,SKC,0.00,VWS V14.01,2013-03-26 04:55:00,
2013-03-26 01:00:00,27.7,24.3,30.02,NNW,348,8.0,19.0,87,0.00,,SKC,0.00,VWS V14.01,2013-03-26 05:00:00,
2013-03-26 01:05:00,27.6,24.2,30.02,NNE,29,8.0,17.0,87,0.00,,SKC,0.00,VWS V14.01,2013-03-26 05:05:00,
2013-03-26 01:10:00,27.6,24.0,30.02,NNE,15,10.0,17.0,86,0.00,,SKC,0.00,VWS V14.01,2013-03-26 05:10:00,
2013-03-26 01:15:00,27.7,23.8,30.02,NNW,333,7.0,18.0,85,0.00,,SKC,0.00,VWS V14.01,2013-03-26 05:15:00,
2013-03-26 01:20:00,27.8,23.6,30.02,NW,324,6.0,18.0,84,0.00,,SKC,0.00,VWS V14.01,2013-03-26 05:20:00,
2013-03-26 01:25:00,27.8,23.9,30.02,NNW,339,5.0,18.0,85,0.00,,SKC,0.00,VWS V14.01,2013-03-26 05:25:00,
2013-03-26 01:30:00,27.6,24.0,30.02,NNW,339,9.0,18.0,86,0.00,,SKC,0.00,VWS V14.01,2013-03-26 05:30:00,
2013-03-26 01:35:00,27.6,24.0,30.03,NNE,29,12.0,15.0,86,0.00,,SKC,0.00,VWS V14.01,2013-03-26 05:35:00,
2013-03-26 01:40:00,27.5,23.9,30.03,North,349,2.0,15.0,86,0.00,,SKC,0.00,VWS V14.01,2013-03-26 05:40:00,
2013-03-26 01:45:00,27.5,23.9,30.03,NNW,340,12.0,15.0,86,0.00,,SKC,0.00,VWS V14.01,2013-03-26 05:45:00,
2013-03-26 01:50:00,27.5,24.1,30.03,NE,56,5.0,15.0,87,0.00,,SKC,0.00,VWS V14.01,2013-03-26 05:50:00,
2013-03-26 01:55:00,27.4,24.0,30.03,NNW,343,9.0,15.0,87,0.00,,SKC,0.00,VWS V14.01,2013-03-26 05:55:00,
2013-03-26 02:00:00,27.4,24.0,30.02,North,5,10.0,16.0,87,0.00,,SKC,0.00,VWS V14.01,2013-03-26 06:00:00,
2013-03-26 02:05:00,27.4,23.8,30.02,North,353,9.0,16.0,86,0.00,,SKC,0.00,VWS V14.01,2013-03-26 06:05:00,
2013-03-26 02:10:00,27.4,24.0,30.02,North,351,12.0,16.0,87,0.00,,SKC,0.00,VWS V14.01,2013-03-26 06:10:00,
2013-03-26 02:15:00,27.4,24.0,30.02,North,5,9.0,16.0,87,0.00,,SKC,0.00,VWS V14.01,2013-03-26 06:15:00,
2013-03-26 02:20:00,27.3,24.2,30.03,North,353,11.0,16.0,88,0.00,,SKC,0.00,VWS V14.01,2013-03-26 06:20:00,
2013-03-26 02:25:00,27.1,24.0,30.02,North,355,8.0,16.0,88,0.00,,SKC,0.00,VWS V14.01,2013-03-26 06:25:00,
2013-03-26 02:30:00,27.1,24.3,30.02,NNW,340,9.0,16.0,89,0.00,,SKC,0.00,VWS V14.01,2013-03-26 06:30:00,
2013-03-26 02:35:00,27.1,24.0,30.02,NNW,348,13.0,15.0,88,0.00,,SKC,0.00,VWS V14.01,2013-03-26 06:35:00,
2013-03-26 02:40:00,27.1,24.0,30.02,NE,43,9.0,15.0,88,0.00,,SKC,0.00,VWS V14.01,2013-03-26 06:40:00,
2013-03-26 02:45:00,27.0,23.9,30.03,North,360,6.0,15.0,88,0.00,,SKC,0.00,VWS V14.01,2013-03-26 06:45:00,
2013-03-26 02:50:00,27.0,23.9,30.03,NNE,25,10.0,15.0,88,0.00,,SKC,0.00,VWS V14.01,2013-03-26 06:50:00,
2013-03-26 02:55:00,26.9,23.8,30.02,NNE,16,9.0,15.0,88,0.00,,SKC,0.00,VWS V14.01,2013-03-26 06:55:00,
2013-03-26 03:00:00,26.9,24.1,30.02,North,355,16.0,17.0,89,0.00,,SKC,0.00,VWS V14.01,2013-03-26 07:00:00,
2013-03-26 03:05:00,26.9,23.8,30.02,NNW,341,8.0,14.0,88,0.00,,SKC,0.00,VWS V14.01,2013-03-26 07:05:00,
2013-03-26 03:10:00,26.9,23.8,30.03,NNW,329,3.0,14.0,88,0.00,,SKC,0.00,VWS V14.01,2013-03-26 07:10:00,
2013-03-26 03:15:00,26.9,23.8,30.02,NE,34,8.0,14.0,88,0.00,,SKC,0.00,VWS V14.01,2013-03-26 07:15:00,
2013-03-26 03:20:00,26.9,23.8,30.02,North,356,6.0,14.0,88,0.00,,SKC,0.00,VWS V14.01,2013-03-26 07:20:00,
2013-03-26 03:25:00,26.9,23.8,30.02,North,355,10.0,14.0,88,0.00,,SKC,0.00,VWS V14.01,2013-03-26 07:25:00,
2013-03-26 03:30:00,26.9,24.1,30.03,ENE,62,7.0,14.0,89,0.00,,SKC,0.00,VWS V14.01,2013-03-26 07:30:00,
2013-03-26 03:35:00,26.9,24.1,30.03,North,6,5.0,8.0,89,0.00,,SKC,0.00,VWS V14.01,2013-03-26 07:35:00,
2013-03-26 03:40:00,26.9,24.1,30.02,NNW,338,5.0,8.0,89,0.00,,SKC,0.00,VWS V14.01,2013-03-26 07:40:00,
2013-03-26 03:45:00,26.9,24.1,30.03,NNW,346,7.0,8.0,89,0.00,,SKC,0.00,VWS V14.01,2013-03-26 07:45:00,
2013-03-26 03:50:00,27.0,23.9,30.03,NE,49,4.0,11.0,88,0.00,,SKC,0.00,VWS V14.01,2013-03-26 07:50:00,
2013-03-26 03:55:00,27.0,23.9,30.02,North,354,5.0,11.0,88,0.00,,SKC,0.00,VWS V14.01,2013-03-26 07:55:00,
2013-03-26 04:00:00,27.0,24.2,30.02,NNW,346,4.0,11.0,89,0.00,,SKC,0.00,VWS V14.01,2013-03-26 08:00:00,
2013-03-26 04:05:00,27.0,24.2,30.02,NNE,13,4.0,7.0,89,0.00,,SKC,0.00,VWS V14.01,2013-03-26 08:05:00,
2013-03-26 04:10:00,27.0,23.9,30.03,NNE,29,5.0,10.0,88,0.00,,SKC,0.00,VWS V14.01,2013-03-26 08:10:00,
2013-03-26 04:15:00,27.1,24.0,30.03,NNW,347,7.0,10.0,88,0.00,,SKC,0.00,VWS V14.01,2013-03-26 08:15:00,
2013-03-26 04:20:00,27.1,24.0,30.03,NNE,25,9.0,10.0,88,0.00,,SKC,0.00,VWS V14.01,2013-03-26 08:20:00,
2013-03-26 04:25:00,27.1,24.0,30.03,North,353,4.0,10.0,88,0.00,,SKC,0.00,VWS V14.01,2013-03-26 08:25:00,
2013-03-26 04:30:00,27.1,24.0,30.03,NNW,339,8.0,10.0,88,0.00,,SKC,0.00,VWS V14.01,2013-03-26 08:30:00,
2013-03-26 04:35:00,27.2,24.1,30.03,North,6,4.0,8.0,88,0.00,,SKC,0.00,VWS V14.01,2013-03-26 08:35:00,
2013-03-26 04:40:00,27.3,24.2,30.03,NNW,340,6.0,12.0,88,0.00,,SKC,0.00,VWS V14.01,2013-03-26 08:40:00,
2013-03-26 04:45:00,27.3,24.0,30.03,NNW,343,6.0,13.0,87,0.00,,SKC,0.00,VWS V14.01,2013-03-26 08:45:00,
2013-03-26 04:50:00,27.2,24.1,30.03,North,5,6.0,13.0,88,0.00,,SKC,0.00,VWS V14.01,2013-03-26 08:50:00,
2013-03-26 04:55:00,27.1,24.3,30.03,NNW,340,6.0,13.0,89,0.00,,SKC,0.00,VWS V14.01,2013-03-26 08:55:00,
2013-03-26 05:00:00,27.1,24.3,30.03,NNE,20,6.0,13.0,89,0.00,,SKC,0.00,VWS V14.01,2013-03-26 09:00:00,
2013-03-26 05:05:00,27.0,24.2,30.03,North,354,12.0,12.0,89,0.00,,SKC,0.00,VWS V14.01,2013-03-26 09:05:00,
2013-03-26 05:10:00,27.1,24.0,30.03,NNW,339,9.0,14.0,88,0.00,,SKC,0.00,VWS V14.01,2013-03-26 09:10:00,
2013-03-26 05:15:00,27.1,24.3,30.03,North,354,6.0,14.0,89,0.00,,SKC,0.00,VWS V14.01,2013-03-26 09:15:00,
2013-03-26 05:20:00,27.0,24.2,30.02,NNE,17,4.0,14.0,89,0.00,,SKC,0.00,VWS V14.01,2013-03-26 09:20:00,
2013-03-26 05:25:00,27.0,24.2,30.03,North,359,7.0,14.0,89,0.00,,SKC,0.00,VWS V14.01,2013-03-26 09:25:00,
2013-03-26 05:30:00,27.0,24.2,30.03,North,8,4.0,14.0,89,0.00,,SKC,0.00,VWS V14.01,2013-03-26 09:30:00,
2013-03-26 05:35:00,27.0,24.5,30.03,NNW,348,5.0,9.0,90,0.00,,SKC,0.00,VWS V14.01,2013-03-26 09:35:00,
2013-03-26 05:40:00,27.0,24.5,30.03,NNE,27,5.0,10.0,90,0.00,,SKC,0.00,VWS V14.01,2013-03-26 09:40:00,
2013-03-26 05:45:00,27.0,24.5,30.03,North,8,7.0,10.0,90,0.00,,SKC,0.00,VWS V14.01,2013-03-26 09:45:00,
2013-03-26 05:50:00,27.0,24.5,30.03,NNW,339,7.0,11.0,90,0.00,,SKC,0.00,VWS V14.01,2013-03-26 09:50:00,
2013-03-26 05:55:00,27.0,24.5,30.03,NNE,15,8.0,13.0,90,0.00,,SKC,0.00,VWS V14.01,2013-03-26 09:55:00,
2013-03-26 06:00:00,27.0,24.5,30.04,NNW,346,8.0,13.0,90,0.00,,SKC,0.00,VWS V14.01,2013-03-26 10:00:00,
2013-03-26 06:05:00,27.0,24.5,30.04,NNW,340,6.0,10.0,90,0.00,,SKC,0.00,VWS V14.01,2013-03-26 10:05:00,
2013-03-26 06:10:00,27.0,24.5,30.04,NNW,346,7.0,11.0,90,0.00,,SKC,0.00,VWS V14.01,2013-03-26 10:10:00,
2013-03-26 06:15:00,27.0,24.7,30.04,North,360,8.0,12.0,91,0.00,,SKC,0.00,VWS V14.01,2013-03-26 10:15:00,
2013-03-26 06:20:00,26.9,24.6,30.04,North,354,5.0,12.0,91,0.00,,SKC,0.00,VWS V14.01,2013-03-26 10:20:00,
2013-03-26 06:25:00,26.9,24.6,30.04,NNW,347,6.0,12.0,91,0.00,,SKC,0.00,VWS V14.01,2013-03-26 10:25:00,
2013-03-26 06:30:00,26.9,24.6,30.04,NNW,328,6.0,12.0,91,0.00,,SKC,0.00,VWS V14.01,2013-03-26 10:30:00,
2013-03-26 06:35:00,27.0,24.7,30.04,NE,39,5.0,10.0,91,0.00,,SKC,0.00,VWS V14.01,2013-03-26 10:35:00,
2013-03-26 06:40:00,27.0,24.7,30.04,NNW,343,4.0,10.0,91,0.00,,SKC,0.00,VWS V14.01,2013-03-26 10:40:00,
2013-03-26 06:45:00,27.0,24.7,30.04,NNW,346,6.0,10.0,91,0.00,,SKC,0.00,VWS V14.01,2013-03-26 10:45:00,
2013-03-26 06:50:00,27.0,24.7,30.04,NNE,29,4.0,11.0,91,0.00,,SKC,0.00,VWS V14.01,2013-03-26 10:50:00,
2013-03-26 06:55:00,27.0,24.7,30.04,North,356,7.0,11.0,91,0.00,,SKC,0.00,VWS V14.01,2013-03-26 10:55:00,
2013-03-26 07:00:00,27.0,25.0,30.04,NNE,30,8.0,11.0,92,0.00,,SKC,0.00,VWS V14.01,2013-03-26 11:00:00,
2013-03-26 07:05:00,26.9,24.9,30.05,NNW,337,11.0,13.0,92,0.00,,SKC,0.00,VWS V14.01,2013-03-26 11:05:00,
2013-03-26 07:10:00,26.9,24.9,30.05,NE,51,8.0,14.0,92,0.00,,SKC,0.00,VWS V14.01,2013-03-26 11:10:00,
2013-03-26 07:15:00,26.9,24.9,30.05,NNE,23,6.0,14.0,92,0.00,,SKC,0.00,VWS V14.01,2013-03-26 11:15:00,
2013-03-26 07:20:00,26.9,24.9,30.05,NE,50,6.0,14.0,92,0.00,,SKC,0.00,VWS V14.01,2013-03-26 11:20:00,
2013-03-26 07:25:00,26.9,24.9,30.05,North,355,5.0,14.0,92,0.00,,SKC,0.00,VWS V14.01,2013-03-26 11:25:00,
2013-03-26 07:30:00,26.9,24.9,30.05,North,6,6.0,14.0,92,0.00,,SKC,0.00,VWS V14.01,2013-03-26 11:30:00,
2013-03-26 07:35:00,26.9,24.9,30.05,NNW,348,7.0,12.0,92,0.00,,SKC,0.00,VWS V14.01,2013-03-26 11:35:00,
2013-03-26 07:40:00,26.9,24.9,30.06,North,6,6.0,13.0,92,0.00,,SKC,0.00,VWS V14.01,2013-03-26 11:40:00,
2013-03-26 07:45:00,27.0,25.0,30.06,North,5,4.0,13.0,92,0.00,,SKC,0.00,VWS V14.01,2013-03-26 11:45:00,
2013-03-26 07:50:00,27.0,25.0,30.06,NNE,24,7.0,13.0,92,0.00,,SKC,0.00,VWS V14.01,2013-03-26 11:50:00,
2013-03-26 07:55:00,27.0,25.2,30.06,NNE,20,7.0,13.0,93,0.00,,SKC,0.00,VWS V14.01,2013-03-26 11:55:00,
2013-03-26 08:00:00,27.0,25.2,30.06,NNE,13,5.0,13.0,93,0.00,,SKC,0.00,VWS V14.01,2013-03-26 12:00:00,
2013-03-26 08:05:00,27.0,25.2,30.07,North,6,7.0,9.0,93,0.00,,SKC,0.00,VWS V14.01,2013-03-26 12:05:00,
2013-03-26 08:10:00,27.1,25.4,30.07,NNE,15,6.0,9.0,93,0.00,,SKC,0.00,VWS V14.01,2013-03-26 12:10:00,
2013-03-26 08:15:00,27.1,25.4,30.07,North,352,9.0,10.0,93,0.00,,SKC,0.00,VWS V14.01,2013-03-26 12:15:00,
2013-03-26 08:20:00,27.1,25.4,30.07,NNE,18,7.0,11.0,93,0.00,,SKC,0.00,VWS V14.01,2013-03-26 12:20:00,
2013-03-26 08:25:00,27.2,25.5,30.08,NNE,22,5.0,11.0,93,0.00,,SKC,0.00,VWS V14.01,2013-03-26 12:25:00,
2013-03-26 08:30:00,27.3,25.3,30.08,NNW,342,4.0,11.0,92,0.00,,SKC,0.00,VWS V14.01,2013-03-26 12:30:00,
2013-03-26 08:35:00,27.4,25.4,30.08,NNE,31,8.0,11.0,92,0.00,,SKC,0.00,VWS V14.01,2013-03-26 12:35:00,
2013-03-26 08:40:00,27.5,25.5,30.08,NNW,348,6.0,11.0,92,0.00,,SKC,0.00,VWS V14.01,2013-03-26 12:40:00,
2013-03-26 08:45:00,27.5,25.5,30.08,North,1,9.0,13.0,92,0.00,,SKC,0.00,VWS V14.01,2013-03-26 12:45:00,
2013-03-26 08:50:00,27.6,25.6,30.08,North,360,8.0,13.0,92,0.00,,SKC,0.00,VWS V14.01,2013-03-26 12:50:00,
2013-03-26 08:55:00,27.6,25.6,30.09,North,349,3.0,13.0,92,0.00,,SKC,0.00,VWS V14.01,2013-03-26 12:55:00,
2013-03-26 09:00:00,27.7,25.7,30.09,NNW,338,4.0,13.0,92,0.00,,SKC,0.00,VWS V14.01,2013-03-26 13:00:00,
2013-03-26 09:05:00,27.8,25.8,30.09,North,353,7.0,12.0,92,0.00,,SKC,0.00,VWS V14.01,2013-03-26 13:05:00,
2013-03-26 09:10:00,28.0,26.0,30.09,North,350,10.0,12.0,92,0.00,,SKC,0.00,VWS V14.01,2013-03-26 13:10:00,
2013-03-26 09:15:00,28.0,25.7,30.10,North,8,6.0,12.0,91,0.00,,SKC,0.00,VWS V14.01,2013-03-26 13:15:00,
2013-03-26 09:20:00,28.1,26.1,30.10,North,352,3.0,12.0,92,0.00,,SKC,0.00,VWS V14.01,2013-03-26 13:20:00,
2013-03-26 09:25:00,28.2,26.2,30.10,North,8,8.0,12.0,92,0.00,,SKC,0.00,VWS V14.01,2013-03-26 13:25:00,
2013-03-26 09:30:00,28.2,26.2,30.10,NNE,24,4.0,12.0,92,0.00,,SKC,0.00,VWS V14.01,2013-03-26 13:30:00,
2013-03-26 09:35:00,28.3,26.0,30.11,North,355,12.0,13.0,91,0.00,,SKC,0.00,VWS V14.01,2013-03-26 13:35:00,
2013-03-26 09:40:00,28.5,26.2,30.11,NNE,19,9.0,14.0,91,0.00,,SKC,0.00,VWS V14.01,2013-03-26 13:40:00,
2013-03-26 09:45:00,28.7,26.4,30.11,North,349,3.0,14.0,91,0.00,,SKC,0.00,VWS V14.01,2013-03-26 13:45:00,
2013-03-26 09:50:00,28.9,26.3,30.11,NNE,27,8.0,14.0,90,0.00,,SKC,0.00,VWS V14.01,2013-03-26 13:50:00,
2013-03-26 09:55:00,29.0,26.4,30.11,North,6,7.0,14.0,90,0.00,,SKC,0.00,VWS V14.01,2013-03-26 13:55:00,
2013-03-26 10:00:00,28.9,26.3,30.11,WNW,293,5.0,17.0,90,0.00,,SKC,0.00,VWS V14.01,2013-03-26 14:00:00,
2013-03-26 10:05:00,29.0,26.4,30.12,NNE,15,7.0,17.0,90,0.00,,SKC,0.00,VWS V14.01,2013-03-26 14:05:00,
2013-03-26 10:10:00,29.1,26.5,30.12,NNW,345,10.0,17.0,90,0.00,,SKC,0.00,VWS V14.01,2013-03-26 14:10:00,
2013-03-26 10:15:00,29.2,26.4,30.12,North,1,12.0,17.0,89,0.00,,SKC,0.00,VWS V14.01,2013-03-26 14:15:00,
2013-03-26 10:20:00,29.4,26.6,30.12,WSW,258,5.0,17.0,89,0.00,,SKC,0.00,VWS V14.01,2013-03-26 14:20:00,
2013-03-26 10:25:00,29.5,26.7,30.13,NNW,332,2.0,17.0,89,0.00,,SKC,0.00,VWS V14.01,2013-03-26 14:25:00,
2013-03-26 10:30:00,29.6,26.8,30.13,NNE,17,8.0,17.0,89,0.00,,SKC,0.00,VWS V14.01,2013-03-26 14:30:00,
2013-03-26 10:35:00,29.7,26.9,30.13,NE,50,7.0,11.0,89,0.00,,SKC,0.00,VWS V14.01,2013-03-26 14:35:00,
2013-03-26 10:40:00,30.0,26.9,30.13,NE,51,2.0,15.0,88,0.00,,SKC,0.00,VWS V14.01,2013-03-26 14:40:00,
2013-03-26 10:45:00,30.3,27.2,30.13,SW,229,2.0,15.0,88,0.00,,SKC,0.00,VWS V14.01,2013-03-26 14:45:00,
2013-03-26 10:50:00,30.5,27.1,30.13,NNW,338,3.0,16.0,87,0.00,,SKC,0.00,VWS V14.01,2013-03-26 14:50:00,
2013-03-26 10:55:00,30.8,27.1,30.14,NW,315,3.0,16.0,86,0.00,,SKC,0.00,VWS V14.01,2013-03-26 14:55:00,
2013-03-26 11:00:00,30.8,26.8,30.14,NNW,329,8.0,16.0,85,0.00,,SKC,0.00,VWS V14.01,2013-03-26 15:00:00,
2013-03-26 11:05:00,30.9,27.2,30.14,North,355,6.0,14.0,86,0.00,,SKC,0.00,VWS V14.01,2013-03-26 15:05:00,
2013-03-26 11:10:00,31.1,27.4,30.14,NNW,336,4.0,15.0,86,0.00,,SKC,0.00,VWS V14.01,2013-03-26 15:10:00,
2013-03-26 11:14:00,31.2,26.9,30.15,North,355,13.0,15.0,84,0.00,,SKC,0.00,VWS V14.01,2013-03-26 15:14:00,
2013-03-26 11:19:00,30.9,26.9,30.15,North,8,6.0,18.0,85,0.00,,SKC,0.00,VWS V14.01,2013-03-26 15:19:00,
2013-03-26 11:24:00,31.4,27.4,30.15,SW,232,4.0,18.0,85,0.00,,SKC,0.00,VWS V14.01,2013-03-26 15:24:00,
2013-03-26 11:29:00,31.5,27.5,30.15,NNW,341,10.0,18.0,85,0.00,,SKC,0.00,VWS V14.01,2013-03-26 15:29:00,
2013-03-26 11:30:00,31.6,27.3,30.16,North,6,7.0,18.0,84,0.00,,SKC,0.00,VWS V14.01,2013-03-26 15:30:00,
2013-03-26 11:34:00,31.7,27.1,30.16,NNW,336,8.0,18.0,83,0.00,,SKC,0.00,VWS V14.01,2013-03-26 15:34:00,
2013-03-26 11:39:00,31.6,27.6,30.16,NNW,333,5.0,18.0,85,0.00,,SKC,0.00,VWS V14.01,2013-03-26 15:39:00,
2013-03-26 11:44:00,32.2,27.9,30.16,WNW,287,6.0,18.0,84,0.00,,SKC,0.00,VWS V14.01,2013-03-26 15:44:00,
2013-03-26 11:49:00,32.5,27.9,30.16,WNW,301,11.0,18.0,83,0.00,,SKC,0.00,VWS V14.01,2013-03-26 15:49:00,
2013-03-26 11:54:00,32.5,27.9,30.16,NNE,18,8.0,18.0,83,0.00,,SKC,0.00,VWS V14.01,2013-03-26 15:54:00,
2013-03-26 12:00:00,32.5,27.9,30.16,NNW,332,8.0,18.0,83,0.00,,SKC,0.00,VWS V14.01,2013-03-26 16:00:00,
2013-03-26 12:05:00,32.8,28.5,30.16,NNW,346,7.0,12.0,84,0.00,,SKC,0.00,VWS V14.01,2013-03-26 16:05:00,
2013-03-26 12:10:00,32.7,27.5,30.16,North,352,13.0,18.0,81,0.00,,SKC,0.00,VWS V14.01,2013-03-26 16:10:00,
2013-03-26 12:15:00,32.1,27.8,30.16,North,3,13.0,21.0,84,0.00,,SKC,0.00,VWS V14.01,2013-03-26 16:15:00,
2013-03-26 12:20:00,32.3,28.3,30.16,NNE,16,6.0,21.0,85,0.00,,SKC,0.00,VWS V14.01,2013-03-26 16:20:00,
2013-03-26 12:25:00,32.6,28.0,30.16,NNW,347,11.0,22.0,83,0.00,,SKC,0.00,VWS V14.01,2013-03-26 16:25:00,
2013-03-26 12:30:00,32.5,27.9,30.16,NNW,342,9.0,22.0,83,0.00,,SKC,0.00,VWS V14.01,2013-03-26 16:30:00,
2013-03-26 12:34:00,32.2,27.3,30.17,NNW,346,17.0,18.0,82,0.00,,SKC,0.00,VWS V14.01,2013-03-26 16:34:00,
2013-03-26 12:39:00,32.4,28.1,30.17,NNE,20,15.0,18.0,84,0.00,,SKC,0.00,VWS V14.01,2013-03-26 16:39:00,
2013-03-26 12:44:00,32.9,28.6,30.17,North,352,8.0,18.0,84,0.00,,SKC,0.00,VWS V14.01,2013-03-26 16:44:00,
2013-03-26 12:49:00,32.9,28.3,30.17,NNW,346,7.0,18.0,83,0.00,,SKC,0.00,VWS V14.01,2013-03-26 16:49:00,
2013-03-26 12:54:00,33.5,28.3,30.17,North,4,15.0,18.0,81,0.00,,SKC,0.00,VWS V14.01,2013-03-26 16:54:00,
2013-03-26 12:59:00,33.0,27.5,30.17,NNW,346,15.0,21.0,80,0.00,,SKC,0.00,VWS V14.01,2013-03-26 16:59:00,
2013-03-26 13:00:00,32.9,27.4,30.17,NNE,27,10.0,21.0,80,0.00,,SKC,0.00,VWS V14.01,2013-03-26 17:00:00,
2013-03-26 13:04:00,33.3,27.8,30.17,NE,39,4.0,15.0,80,0.00,,SKC,0.00,VWS V14.01,2013-03-26 17:04:00,
2013-03-26 13:09:00,33.6,27.8,30.17,NNW,342,8.0,17.0,79,0.00,,SKC,0.00,VWS V14.01,2013-03-26 17:09:00,
2013-03-26 13:14:00,33.4,27.9,30.17,NNW,342,19.0,19.0,80,0.00,,SKC,0.00,VWS V14.01,2013-03-26 17:14:00,
2013-03-26 13:19:00,33.1,27.9,30.17,North,360,8.0,20.0,81,0.00,,SKC,0.00,VWS V14.01,2013-03-26 17:19:00,
2013-03-26 13:24:00,32.5,28.2,30.17,NNW,343,7.0,20.0,84,0.00,,SKC,0.00,VWS V14.01,2013-03-26 17:24:00,
2013-03-26 13:29:00,32.0,27.7,30.17,NE,46,12.0,20.0,84,0.00,,SKC,0.00,VWS V14.01,2013-03-26 17:29:00,
2013-03-26 13:30:00,32.0,27.7,30.17,North,355,12.0,20.0,84,0.00,,SKC,0.00,VWS V14.01,2013-03-26 17:30:00,
2013-03-26 13:34:00,32.3,28.3,30.17,WSW,258,7.0,18.0,85,0.00,,SKC,0.00,VWS V14.01,2013-03-26 17:34:00,
2013-03-26 13:39:00,32.8,27.9,30.17,NNE,30,11.0,18.0,82,0.00,,SKC,0.00,VWS V14.01,2013-03-26 17:39:00,
2013-03-26 13:44:00,32.8,27.9,30.17,North,4,17.0,20.0,82,0.00,,SKC,0.00,VWS V14.01,2013-03-26 17:44:00,
2013-03-26 13:49:00,33.4,28.2,30.17,North,4,14.0,20.0,81,0.00,,SKC,0.00,VWS V14.01,2013-03-26 17:49:00,
2013-03-26 13:54:00,33.4,28.2,30.17,NNE,16,14.0,20.0,81,0.00,,SKC,0.00,VWS V14.01,2013-03-26 17:54:00,
2013-03-26 13:59:00,33.5,28.6,30.17,North,359,9.0,20.0,82,0.00,,SKC,0.00,VWS V14.01,2013-03-26 17:59:00,
2013-03-26 14:00:00,33.4,28.8,30.17,North,350,11.0,20.0,83,0.00,,SKC,0.00,VWS V14.01,2013-03-26 18:00:00,
2013-03-26 14:04:00,33.5,28.9,30.17,NW,320,9.0,12.0,83,0.00,,SKC,0.00,VWS V14.01,2013-03-26 18:04:00,
2013-03-26 14:09:00,33.4,28.5,30.17,NNW,334,21.0,21.0,82,0.00,,SKC,0.00,VWS V14.01,2013-03-26 18:09:00,
2013-03-26 14:14:00,33.4,29.4,30.17,NNE,23,10.0,21.0,85,0.00,,SKC,0.00,VWS V14.01,2013-03-26 18:14:00,
2013-03-26 14:19:00,33.2,28.9,30.17,NNW,336,5.0,21.0,84,0.00,,SKC,0.00,VWS V14.01,2013-03-26 18:19:00,
2013-03-26 14:24:00,33.1,28.2,30.17,NNW,347,14.0,21.0,82,0.00,,SKC,0.00,VWS V14.01,2013-03-26 18:24:00,
2013-03-26 14:29:00,32.9,27.7,30.17,NNW,334,11.0,21.0,81,0.00,,SKC,0.00,VWS V14.01,2013-03-26 18:29:00,
2013-03-26 14:30:00,32.9,27.7,30.17,NNE,22,9.0,21.0,81,0.00,,SKC,0.00,VWS V14.01,2013-03-26 18:30:00,
2013-03-26 14:34:00,32.8,27.6,30.17,North,349,16.0,18.0,81,0.00,,SKC,0.00,VWS V14.01,2013-03-26 18:34:00,
2013-03-26 14:39:00,32.9,27.7,30.17,NW,324,9.0,19.0,81,0.00,,SKC,0.00,VWS V14.01,2013-03-26 18:39:00,
2013-03-26 14:44:00,33.2,27.4,30.17,North,354,14.0,19.0,79,0.00,,SKC,0.00,VWS V14.01,2013-03-26 18:44:00,
2013-03-26 14:49:00,33.3,26.9,30.18,North,5,11.0,19.0,77,0.00,,SKC,0.00,VWS V14.01,2013-03-26 18:49:00,
2013-03-26 14:54:00,33.4,27.3,30.18,NNE,22,14.0,19.0,78,0.00,,SKC,0.00,VWS V14.01,2013-03-26 18:54:00,
2013-03-26 14:59:00,32.9,27.1,30.17,NNE,23,6.0,19.0,79,0.00,,SKC,0.00,VWS V14.01,2013-03-26 18:59:00,
2013-03-26 15:00:00,32.9,27.7,30.17,North,353,8.0,19.0,81,0.00,,SKC,0.00,VWS V14.01,2013-03-26 19:00:00,
2013-03-26 15:04:00,32.9,27.4,30.17,NE,36,9.0,18.0,80,0.00,,SKC,0.00,VWS V14.01,2013-03-26 19:04:00,
2013-03-26 15:09:00,33.0,27.8,30.18,NNE,13,10.0,18.0,81,0.00,,SKC,0.00,VWS V14.01,2013-03-26 19:09:00,
2013-03-26 15:14:00,33.2,27.7,30.18,NNE,18,3.0,18.0,80,0.00,,SKC,0.00,VWS V14.01,2013-03-26 19:14:00,
2013-03-26 15:19:00,33.1,27.6,30.18,NNE,19,6.0,18.0,80,0.00,,SKC,0.00,VWS V14.01,2013-03-26 19:19:00,
2013-03-26 15:24:00,32.7,27.5,30.18,NNW,342,10.0,18.0,81,0.00,,SKC,0.00,VWS V14.01,2013-03-26 19:24:00,
2013-03-26 15:29:00,32.4,27.2,30.18,NNW,333,6.0,18.0,81,0.00,,SKC,0.00,VWS V14.01,2013-03-26 19:29:00,
2013-03-26 15:30:00,32.4,27.2,30.18,NNE,17,15.0,18.0,81,0.00,,SKC,0.00,VWS V14.01,2013-03-26 19:30:00,
2013-03-26 15:34:00,32.4,27.2,30.18,NE,49,12.0,16.0,81,0.00,,SKC,0.00,VWS V14.01,2013-03-26 19:34:00,
2013-03-26 15:39:00,32.5,27.6,30.19,NW,321,5.0,17.0,82,0.00,,SKC,0.00,VWS V14.01,2013-03-26 19:39:00,
2013-03-26 15:44:00,32.4,27.2,30.19,NE,46,5.0,17.0,81,0.00,,SKC,0.00,VWS V14.01,2013-03-26 19:44:00,
2013-03-26 15:49:00,32.6,27.4,30.19,NNW,328,4.0,17.0,81,0.00,,SKC,0.00,VWS V14.01,2013-03-26 19:49:00,
2013-03-26 15:54:00,32.7,27.2,30.19,NNW,346,13.0,17.0,80,0.00,,SKC,0.00,VWS V14.01,2013-03-26 19:54:00,
2013-03-26 15:59:00,32.4,26.6,30.19,NE,37,5.0,17.0,79,0.00,,SKC,0.00,VWS V14.01,2013-03-26 19:59:00,
2013-03-26 16:00:00,32.4,26.9,30.19,NNE,29,4.0,17.0,80,0.00,,SKC,0.00,VWS V14.01,2013-03-26 20:00:00,
2013-03-26 16:04:00,32.4,26.6,30.19,NNW,335,7.0,12.0,79,0.00,,SKC,0.00,VWS V14.01,2013-03-26 20:04:00,
2013-03-26 16:09:00,32.4,26.9,30.19,NNE,13,7.0,14.0,80,0.00,,SKC,0.00,VWS V14.01,2013-03-26 20:09:00,
2013-03-26 16:14:00,32.3,26.8,30.19,NNE,12,7.0,16.0,80,0.00,,SKC,0.00,VWS V14.01,2013-03-26 20:14:00,
2013-03-26 16:19:00,32.1,26.9,30.19,ENE,75,11.0,16.0,81,0.00,,SKC,0.00,VWS V14.01,2013-03-26 20:19:00,
2013-03-26 16:24:00,31.8,26.9,30.19,NNW,339,10.0,16.0,82,0.00,,SKC,0.00,VWS V14.01,2013-03-26 20:24:00,
2013-03-26 16:29:00,31.5,27.2,30.20,NNW,341,6.0,16.0,84,0.00,,SKC,0.00,VWS V14.01,2013-03-26 20:29:00,
2013-03-26 16:30:00,31.4,27.1,30.20,NNE,20,6.0,16.0,84,0.00,,SKC,0.00,VWS V14.01,2013-03-26 20:30:00,
2013-03-26 16:34:00,31.3,27.3,30.20,WNW,296,2.0,13.0,85,0.00,,SKC,0.00,VWS V14.01,2013-03-26 20:34:00,
2013-03-26 16:39:00,31.1,27.1,30.20,NNW,346,8.0,14.0,85,0.00,,SKC,0.00,VWS V14.01,2013-03-26 20:39:00,
2013-03-26 16:44:00,31.0,27.0,30.20,NNW,340,8.0,16.0,85,0.00,,SKC,0.00,VWS V14.01,2013-03-26 20:44:00,
2013-03-26 16:49:00,31.1,27.1,30.20,North,6,11.0,16.0,85,0.00,,SKC,0.00,VWS V14.01,2013-03-26 20:49:00,
2013-03-26 16:54:00,31.2,26.9,30.20,NNE,18,10.0,18.0,84,0.00,,SKC,0.00,VWS V14.01,2013-03-26 20:54:00,
2013-03-26 16:59:00,31.2,26.9,30.20,NNE,15,10.0,18.0,84,0.00,,SKC,0.00,VWS V14.01,2013-03-26 20:59:00,
2013-03-26 17:00:00,31.2,26.9,30.20,North,356,11.0,18.0,84,0.00,,SKC,0.00,VWS V14.01,2013-03-26 21:00:00,
2013-03-26 17:04:00,31.2,26.9,30.20,North,8,2.0,12.0,84,0.00,,SKC,0.00,VWS V14.01,2013-03-26 21:04:00,
2013-03-26 17:09:00,31.3,27.0,30.20,NNW,343,9.0,13.0,84,0.00,,SKC,0.00,VWS V14.01,2013-03-26 21:09:00,
2013-03-26 17:14:00,31.3,27.0,30.20,NE,49,6.0,13.0,84,0.00,,SKC,0.00,VWS V14.01,2013-03-26 21:14:00,
2013-03-26 17:19:00,31.3,27.0,30.21,NNW,345,6.0,13.0,84,0.00,,SKC,0.00,VWS V14.01,2013-03-26 21:19:00,
2013-03-26 17:24:00,31.4,26.8,30.21,North,3,6.0,16.0,83,0.00,,SKC,0.00,VWS V14.01,2013-03-26 21:24:00,
2013-03-26 17:29:00,31.5,26.9,30.21,NNW,347,8.0,16.0,83,0.00,,SKC,0.00,VWS V14.01,2013-03-26 21:29:00,
2013-03-26 17:30:00,31.5,26.9,30.21,NNW,343,5.0,16.0,83,0.00,,SKC,0.00,VWS V14.01,2013-03-26 21:30:00,
2013-03-26 17:34:00,31.6,27.0,30.21,NNW,339,8.0,11.0,83,0.00,,SKC,0.00,VWS V14.01,2013-03-26 21:34:00,
2013-03-26 17:39:00,31.7,26.8,30.21,North,8,6.0,14.0,82,0.00,,SKC,0.00,VWS V14.01,2013-03-26 21:39:00,
2013-03-26 17:44:00,31.9,27.0,30.21,North,357,8.0,14.0,82,0.00,,SKC,0.00,VWS V14.01,2013-03-26 21:44:00,
2013-03-26 17:49:00,32.0,27.1,30.21,North,11,9.0,14.0,82,0.00,,SKC,0.00,VWS V14.01,2013-03-26 21:49:00,
2013-03-26 17:54:00,32.2,27.3,30.21,NNE,20,8.0,14.0,82,0.00,,SKC,0.00,VWS V14.01,2013-03-26 21:54:00,
2013-03-26 17:59:00,32.3,27.1,30.22,North,11,5.0,14.0,81,0.00,,SKC,0.00,VWS V14.01,2013-03-26 21:59:00,
2013-03-26 18:00:00,32.3,27.1,30.21,NW,324,5.0,14.0,81,0.00,,SKC,0.00,VWS V14.01,2013-03-26 22:00:00,
2013-03-26 18:04:00,32.3,27.1,30.22,WNW,285,3.0,11.0,81,0.00,,SKC,0.00,VWS V14.01,2013-03-26 22:04:00,
2013-03-26 18:09:00,32.3,26.8,30.22,NNE,13,6.0,11.0,80,0.00,,SKC,0.00,VWS V14.01,2013-03-26 22:09:00,
2013-03-26 18:14:00,32.3,26.5,30.22,NNW,333,6.0,15.0,79,0.00,,SKC,0.00,VWS V14.01,2013-03-26 22:14:00,
2013-03-26 18:19:00,32.0,26.5,30.22,NNW,343,5.0,15.0,80,0.00,,SKC,0.00,VWS V14.01,2013-03-26 22:19:00,
2013-03-26 18:24:00,32.0,26.8,30.23,NE,53,11.0,15.0,81,0.00,,SKC,0.00,VWS V14.01,2013-03-26 22:24:00,
2013-03-26 18:29:00,31.9,26.1,30.23,NNE,15,6.0,15.0,79,0.00,,SKC,0.00,VWS V14.01,2013-03-26 22:29:00,
2013-03-26 18:30:00,31.9,25.8,30.23,NNW,346,5.0,15.0,78,0.00,,SKC,0.00,VWS V14.01,2013-03-26 22:30:00,
2013-03-26 18:34:00,31.8,26.4,30.23,NNE,24,7.0,8.0,80,0.00,,SKC,0.00,VWS V14.01,2013-03-26 22:34:00,
2013-03-26 18:39:00,31.7,26.2,30.23,NNW,341,6.0,13.0,80,0.00,,SKC,0.00,VWS V14.01,2013-03-26 22:39:00,
2013-03-26 18:44:00,31.7,26.2,30.23,NNW,338,2.0,13.0,80,0.00,,SKC,0.00,VWS V14.01,2013-03-26 22:44:00,
2013-03-26 18:49:00,31.6,26.5,30.24,NNW,341,4.0,13.0,81,0.00,,SKC,0.00,VWS V14.01,2013-03-26 22:49:00,
2013-03-26 18:54:00,31.6,26.8,30.24,North,355,5.0,13.0,82,0.00,,SKC,0.00,VWS V14.01,2013-03-26 22:54:00,
2013-03-26 18:59:00,31.5,26.9,30.24,NNW,337,6.0,13.0,83,0.00,,SKC,0.00,VWS V14.01,2013-03-26 22:59:00,
2013-03-26 19:00:00,31.4,26.8,30.24,North,349,4.0,13.0,83,0.00,,SKC,0.00,VWS V14.01,2013-03-26 23:00:00,
2013-03-26 19:04:00,31.4,26.8,30.24,ENE,57,4.0,7.0,83,0.00,,SKC,0.00,VWS V14.01,2013-03-26 23:04:00,
2013-03-26 19:09:00,31.4,27.1,30.24,NNW,347,7.0,7.0,84,0.00,,SKC,0.00,VWS V14.01,2013-03-26 23:09:00,
2013-03-26 19:14:00,31.4,27.1,30.24,North,8,4.0,10.0,84,0.00,,SKC,0.00,VWS V14.01,2013-03-26 23:14:00,
2013-03-26 19:19:00,31.3,27.0,30.25,NNW,333,5.0,10.0,84,0.00,,SKC,0.00,VWS V14.01,2013-03-26 23:19:00,
2013-03-26 19:24:00,31.4,27.1,30.25,North,352,10.0,12.0,84,0.00,,SKC,0.00,VWS V14.01,2013-03-26 23:24:00,
2013-03-26 19:29:00,31.3,27.0,30.25,NW,326,4.0,12.0,84,0.00,,SKC,0.00,VWS V14.01,2013-03-26 23:29:00,
2013-03-26 19:30:00,31.3,27.0,30.25,NNE,13,9.0,12.0,84,0.00,,SKC,0.00,VWS V14.01,2013-03-26 23:30:00,
2013-03-26 19:34:00,31.2,26.9,30.25,WNW,295,5.0,10.0,84,0.00,,SKC,0.00,VWS V14.01,2013-03-26 23:34:00,
2013-03-26 19:39:00,31.2,26.9,30.25,NNW,345,3.0,11.0,84,0.00,,SKC,0.00,VWS V14.01,2013-03-26 23:39:00,
2013-03-26 19:44:00,31.2,26.9,30.25,North,352,2.0,11.0,84,0.00,,SKC,0.00,VWS V14.01,2013-03-26 23:44:00,
2013-03-26 19:49:00,31.1,26.8,30.25,NNE,15,7.0,11.0,84,0.00,,SKC,0.00,VWS V14.01,2013-03-26 23:49:00,
2013-03-26 19:54:00,31.1,26.8,30.26,North,5,7.0,12.0,84,0.00,,SKC,0.00,VWS V14.01,2013-03-26 23:54:00,
2013-03-26 19:59:00,31.0,26.7,30.26,North,359,7.0,12.0,84,0.00,,SKC,0.00,VWS V14.01,2013-03-26 23:59:00,
2013-03-26 20:00:00,31.1,26.8,30.26,NNW,339,5.0,12.0,84,0.00,,SKC,0.00,VWS V14.01,2013-03-27 00:00:00,
2013-03-26 20:04:00,31.0,26.7,30.26,NNE,19,7.0,11.0,84,0.00,,SKC,0.00,VWS V14.01,2013-03-27 00:04:00,
2013-03-26 20:09:00,31.1,27.1,30.26,North,358,6.0,11.0,85,0.00,,SKC,0.00,VWS V14.01,2013-03-27 00:09:00,
2013-03-26 20:14:00,31.0,27.0,30.26,North,355,9.0,11.0,85,0.00,,SKC,0.00,VWS V14.01,2013-03-27 00:14:00,
2013-03-26 20:19:00,30.9,27.2,30.26,North,5,8.0,11.0,86,0.00,,SKC,0.00,VWS V14.01,2013-03-27 00:19:00,
2013-03-26 20:24:00,30.7,27.3,30.27,North,357,10.0,11.0,87,0.00,,SKC,0.00,VWS V14.01,2013-03-27 00:24:00,
2013-03-26 20:29:00,30.4,27.3,30.27,NNW,338,5.0,11.0,88,0.00,,SKC,0.00,VWS V14.01,2013-03-27 00:29:00,
2013-03-26 20:30:00,30.3,27.5,30.27,NNE,32,4.0,11.0,89,0.00,,SKC,0.00,VWS V14.01,2013-03-27 00:30:00,
2013-03-26 20:34:00,30.0,27.4,30.27,North,360,8.0,13.0,90,0.00,,SKC,0.00,VWS V14.01,2013-03-27 00:34:00,
2013-03-26 20:39:00,29.7,27.7,30.27,NNE,19,6.0,13.0,92,0.00,,SKC,0.00,VWS V14.01,2013-03-27 00:39:00,
2013-03-26 20:44:00,29.6,27.6,30.27,North,353,5.0,13.0,92,0.00,,SKC,0.00,VWS V14.01,2013-03-27 00:44:00,
2013-03-26 20:49:00,29.7,27.7,30.27,NNW,329,3.0,13.0,92,0.00,,SKC,0.00,VWS V14.01,2013-03-27 00:49:00,
2013-03-26 20:54:00,29.7,27.7,30.28,NNE,15,8.0,13.0,92,0.00,,SKC,0.00,VWS V14.01,2013-03-27 00:54:00,
2013-03-26 20:59:00,29.7,27.7,30.28,North,9,5.0,13.0,92,0.00,,SKC,0.00,VWS V14.01,2013-03-27 00:59:00,
2013-03-26 21:00:00,29.8,27.8,30.28,NW,324,5.0,13.0,92,0.00,,SKC,0.00,VWS V14.01,2013-03-27 01:00:00,
2013-03-26 21:04:00,29.8,27.8,30.28,NW,326,4.0,9.0,92,0.00,,SKC,0.00,VWS V14.01,2013-03-27 01:04:00,
2013-03-26 21:09:00,29.8,27.8,30.28,NW,326,2.0,9.0,92,0.00,,SKC,0.00,VWS V14.01,2013-03-27 01:09:00,
2013-03-26 21:14:00,29.8,27.5,30.28,NNW,341,6.0,11.0,91,0.00,,SKC,0.00,VWS V14.01,2013-03-27 01:14:00,
2013-03-26 21:19:00,29.9,27.3,30.28,NE,35,7.0,11.0,90,0.00,,SKC,0.00,VWS V14.01,2013-03-27 01:19:00,
2013-03-26 21:24:00,29.9,27.1,30.29,NNW,348,6.0,11.0,89,0.00,,SKC,0.00,VWS V14.01,2013-03-27 01:24:00,
2013-03-26 21:29:00,30.0,27.2,30.29,North,353,12.0,13.0,89,0.00,,SKC,0.00,VWS V14.01,2013-03-27 01:29:00,
2013-03-26 21:30:00,30.0,27.2,30.29,NNE,30,9.0,14.0,89,0.00,,SKC,0.00,VWS V14.01,2013-03-27 01:30:00,
2013-03-26 21:34:00,30.0,27.2,30.29,NNW,329,9.0,15.0,89,0.00,,SKC,0.00,VWS V14.01,2013-03-27 01:34:00,
2013-03-26 21:39:00,30.0,27.2,30.29,NNW,342,6.0,15.0,89,0.00,,SKC,0.00,VWS V14.01,2013-03-27 01:39:00,
2013-03-26 21:44:00,30.0,26.9,30.29,North,350,4.0,15.0,88,0.00,,SKC,0.00,VWS V14.01,2013-03-27 01:44:00,
2013-03-26 21:49:00,30.0,26.9,30.30,NNW,340,5.0,15.0,88,0.00,,SKC,0.00,VWS V14.01,2013-03-27 01:49:00,
2013-03-26 22:00:00,29.8,27.8,30.28,NW,324,5.0,13.0,92,0.00,,SKC,0.00,VWS V14.01,2013-03-27 02:00:00,
2013-03-26 22:01:00,30.0,26.6,30.30,North,352,7.0,7.0,87,0.00,,SKC,0.00,VWS V14.01,2013-03-27 02:01:00,
2013-03-26 22:06:00,30.1,26.4,30.30,NNW,347,9.0,9.0,86,0.00,,SKC,0.00,VWS V14.01,2013-03-27 02:06:00,
2013-03-26 22:11:00,30.2,26.2,30.30,NNW,344,7.0,13.0,85,0.00,,SKC,0.00,VWS V14.01,2013-03-27 02:11:00,
2013-03-26 22:16:00,30.2,26.2,30.30,North,5,13.0,15.0,85,0.00,,SKC,0.00,VWS V14.01,2013-03-27 02:16:00,
2013-03-26 22:21:00,30.2,26.2,30.30,NNW,347,4.0,15.0,85,0.00,,SKC,0.00,VWS V14.01,2013-03-27 02:21:00,
2013-03-26 22:26:00,30.3,26.3,30.30,NW,326,4.0,15.0,85,0.00,,SKC,0.00,VWS V14.01,2013-03-27 02:26:00,
2013-03-26 22:30:00,30.3,26.3,30.31,North,5,6.0,15.0,85,0.00,,SKC,0.00,VWS V14.01,2013-03-27 02:30:00,
2013-03-26 22:31:00,30.3,26.3,30.30,NNE,20,7.0,10.0,85,0.00,,SKC,0.00,VWS V14.01,2013-03-27 02:31:00,
2013-03-26 22:36:00,30.4,26.4,30.31,NE,50,5.0,13.0,85,0.00,,SKC,0.00,VWS V14.01,2013-03-27 02:36:00,
2013-03-26 22:41:00,30.4,26.1,30.31,NNW,333,6.0,13.0,84,0.00,,SKC,0.00,VWS V14.01,2013-03-27 02:41:00,
2013-03-26 22:46:00,30.4,26.1,30.31,NNW,339,7.0,13.0,84,0.00,,SKC,0.00,VWS V14.01,2013-03-27 02:46:00,
2013-03-26 22:51:00,30.5,26.2,30.31,NE,38,7.0,13.0,84,0.00,,SKC,0.00,VWS V14.01,2013-03-27 02:51:00,
2013-03-26 22:56:00,30.5,26.5,30.31,North,349,6.0,13.0,85,0.00,,SKC,0.00,VWS V14.01,2013-03-27 02:56:00,
2013-03-26 23:00:00,30.5,26.2,30.31,North,1,5.0,13.0,84,0.00,,SKC,0.00,VWS V14.01,2013-03-27 03:00:00,
2013-03-26 23:01:00,30.5,26.5,30.31,NNW,342,6.0,8.0,85,0.00,,SKC,0.00,VWS V14.01,2013-03-27 03:01:00,
2013-03-26 23:06:00,30.5,26.5,30.31,NNE,31,7.0,13.0,85,0.00,,SKC,0.00,VWS V14.01,2013-03-27 03:06:00,
2013-03-26 23:11:00,30.5,26.5,30.31,North,354,9.0,13.0,85,0.00,,SKC,0.00,VWS V14.01,2013-03-27 03:11:00,
2013-03-26 23:16:00,30.5,26.5,30.31,NW,321,8.0,13.0,85,0.00,,SKC,0.00,VWS V14.01,2013-03-27 03:16:00,
2013-03-26 23:21:00,30.4,26.7,30.31,NNE,22,3.0,17.0,86,0.00,,SKC,0.00,VWS V14.01,2013-03-27 03:21:00,
2013-03-26 23:26:00,30.4,26.7,30.31,NNW,329,6.0,17.0,86,0.00,,SKC,0.00,VWS V14.01,2013-03-27 03:26:00,
2013-03-26 23:30:00,30.4,26.7,30.31,NNE,16,9.0,17.0,86,0.00,,SKC,0.00,VWS V14.01,2013-03-27 03:30:00,
2013-03-26 23:31:00,30.4,26.7,30.31,NNW,341,5.0,10.0,86,0.00,,SKC,0.00,VWS V14.01,2013-03-27 03:31:00,
2013-03-26 23:36:00,30.3,26.9,30.31,North,5,7.0,14.0,87,0.00,,SKC,0.00,VWS V14.01,2013-03-27 03:36:00,
2013-03-26 23:42:00,30.3,26.9,30.31,NNW,345,13.0,14.0,87,0.00,,SKC,0.00,VWS V14.01,2013-03-27 03:42:00,
2013-03-26 23:47:00,30.2,26.8,30.31,North,349,10.0,14.0,87,0.00,,SKC,0.00,VWS V14.01,2013-03-27 03:47:00,
2013-03-26 23:52:00,30.2,26.8,30.31,West,278,4.0,14.0,87,0.00,,SKC,0.00,VWS V14.01,2013-03-27 03:52:00,
2013-03-26 23:57:00,30.2,26.8,30.31,North,6,10.0,15.0,87,0.00,,SKC,0.00,VWS V14.01,2013-03-27 03:57:00,